Regional Weather Roundup
Issued by NWS Albany, NY

Home | Current Version | Previous Version | Graphics & Text | Print | Product List | Glossary Off
Versions: 1 2 3 4 5 6 7 8 9 10 11 12 13 14 15 16 17 18 19 20 21 22 23 24 25 26 27

000
ASUS41 KALY 190510
RWRALY

NEW YORK STATE HOURLY WEATHER ROUNDUP
NATIONAL WEATHER SERVICE ALBANY NY
1200 AM EST THU JAN 19 2017

NOTE: "FAIR" INDICATES FEW OR NO CLOUDS BELOW 12,000 FEET WITH NO
SIGNIFICANT WEATHER AND/OR NO OBSTRUCTIONS TO VISIBILITY.

NYZ032-033-038>043-046>054-057>066-NYZ062>081-082-084-190600-
EAST


CITY           SKY/WX    TMP DP  RH WIND       PRES   REMARKS
ALBANY         CLOUDY    36  34  92 S6        29.99F WCI  31
GLENS FALLS    CLOUDY    35  33  92 S5        29.98S FOG     WCI  31
POUGHKEEPSIE   FOG       35  35 100 CALM      30.02S VSB 1/2
NEWBURGH       FOG       34  34 100 CALM      30.02F VSB 1
MONTGOMERY     FOG       33  32  96 CALM      29.99F VSB 1/2
WHITE PLAINS   PTCLDY    36  34  92 NW5       29.99F WCI  32
ISLIP          CLOUDY    38  36  92 N6        30.00F WCI  33
NEW YORK CITY  MOCLDY    41  35  79 N3        30.01F
CENTRAL PARK   CLOUDY    40  36  86 CALM      30.03F
$$

NYZ005>009-017-018-044>046-055-056-190600-
CENTRAL


CITY           SKY/WX    TMP DP  RH WIND       PRES   REMARKS
FULTON         CLOUDY    36  35  96 SW5       30.00S FOG     WCI  32
SYRACUSE       DRIZZLE   36  36 100 W3        30.00S
ROME           CLOUDY    36  36 100 W6        30.01S FOG     WCI  31
ELMIRA         CLOUDY    38  33  82 W8        30.01R WCI  32
BINGHAMTON     FOG       33  33 100 SW6       29.96S VSB 1/4 WCI  28
MONTICELLO     CLOUDY    34  34 100 W3        29.98F VSB 1
$$

NYZ026>034-041>043-087-190600-
NORTH


CITY           SKY/WX    TMP DP  RH WIND       PRES   REMARKS
WATERTOWN      CLOUDY    35  35 100 SW5       29.98S FOG     WCI  31
FORT DRUM      NOT AVBL
OGDENSBURG     CLOUDY    34  33  98 SW5       29.95R WCI  30
MASSENA        CLOUDY    34  33  96 SW8       29.96S WCI  27
SARANAC LAKE   LGT SNOW  32  29  88 SW9       29.87F FOG     WCI  24
PLATTSBURGH    CLOUDY    34  33  96 CALM      29.93F
$$

NYZ001>004-010>016-019>021-085-190600-
WEST


CITY           SKY/WX    TMP DP  RH WIND       PRES   REMARKS
NIAGARA FALLS  CLOUDY    38  34  85 SW15      30.01S FOG     WCI  29
BUFFALO        DRIZZLE   36  34  92 SW18G28   30.02S FOG     WCI  26
DUNKIRK        CLOUDY    37  36  96 SW13G22   30.05S WCI  29
JAMESTOWN      CLOUDY    34  32  93 W10       30.01F WCI  26
WELLSVILLE     CLOUDY    35  32  88 W7        30.00R FOG     WCI  29
ROCHESTER      CLOUDY    39  35  86 W14       30.01R WCI  31
PENN YAN       CLOUDY    39  31  72 SW12      29.99S WCI  32
$$

             KEY
       WCI = WIND CHILL INDEX
       VSB = VISIBILITY
       HX  = HEAT INDEX
$$




USA.gov is the U.S. government's official web portal to all federal, state and local government web resources and services.